Погода в Чернигове

Погода в Чернигове : погода сейчас, прогноз погоды и архив. Всё, что Вы хотите узнать о погоде в Чернигове!

Хотите узнать прогноз погоды в Чернигове? Тогда Вам сюда: Погода в Чернигове

Поиск расширенной информации на нашем сайте:

Другие новости

Новости СМИ2

Главная страница сайта

Новости сайта

03.07.2017

Напоминаем, что на нашем специализированном сайте Метеоцентр.Азия вы можете получить высокодетализированные автоматические прогнозы погоды по пунктам России, СНГ и мира в авиационном формате (включающие направление и скорость ветра, видимость, явления погоды, количество и форму облачности, нижнюю и верхнюю границу облачности).


Погода в Чернигове - сегодня

Время (UTC), дата Ветер
(°,м/с) 
Видим.   Явления Облачность Т
(°С)
Тd
(°С)
f(%) Тe
(°С)
Pmin
(гПа)
dP
(гПа)
Po
(мм)
O2
(г/м3)
Тmin Tmax R s Состояние
почвы
09 17.06.18 080 (В) 20000 м    6/0 верхняя 
[Ci fib]
+25.1 +15.8 56 +35  1014.4  750  274           
12 17.06.18 080 (В) 10 км    6/0 верхняя 
[Cc]
+28.3 +16.2 48 +39  1013.7  -0.5  750  270           
15 17.06.18 070 (В) 20000 м    4/0 верхняя 
[Ci fib]
+27.9 +16.7 51 +40  1012.9  -0.8  749  270           
18 17.06.18 120 (ЮВ) 10 км    8/0 средняя, верхняя 
[Ac trans|Ci fib]
+24.9 +17 62 +37  1014  0.9  750  273    +28.5       
21 17.06.18 тихо ()   н/о    3/0 верхняя 
[Ci fib]
+20.4 +17.1 81 +33  1014.8  0.6  751  278           
00 18.06.18 тихо ()   н/о    8/0 средняя, верхняя 
[Ac trans|Ci fib]
+18.6 +16.1 85 +29  1015  0.1  751  280           
03 18.06.18 120 (ЮВ) 10 км    8/0 верхняя 
[Ci fib]
+18.4 +15.3 82 +29  1015.2  0.2  751  280           
06 18.06.18 150 (ЮВ) 10 км    8/0 верхняя 
[Ci]
+22.2 +18 77 +36  1015.5  0.5  751  276  +17         
09 18.06.18 130 (ЮВ) 20000 м    6/1 1000 м верхняя 
[Cu hum|Ci fib]
+27 +12.2 40 +31  1015.5  0.2  751  273           
12 18.06.18 010 (С) 20000 м    8/6 1000 м верхняя 
[Cu med, cong|Ci]
+26.1 +16.8 57 +38  1015.2  -0.3  751  273           
15 18.06.18 030 (СВ) 20000 м    3/0 верхняя 
[Ci fib]
+26.5 +16.1 53 +37  1014.3  -0.9  750  272           
18 18.06.18 010 (С) 10 км    8/0 верхняя 
[Ci]
+23.5 +17.2 68 +36  1015.3  0.9  751  275    +29.4       
21 18.06.18 010 (С) н/о    4/0 верхняя 
[Ci fib]
+20.2 +15.5 74 +30  1016.3  0.8  752  279           
00 19.06.18 010 (С) н/о    6/0 верхняя 
[Ci fib]
+18.2 +14.8 81 +28  1016.4  752  281           
03 19.06.18 тихо ()   10 км  местами туман поземный  3/0 верхняя 
[Ci fib]
+17 +16 94 +27  1016.9  0.4  752  282           
06 19.06.18 тихо ()   10 км    ясно 
+24.6 +17 63 +37  1016.8  0.3  752  274  +16         
09 19.06.18 330 (СЗ) 20000 м    4/4 1000 м 
[Cu hum]
+28 +14.8 45 +36  1016.5  -0.2  752  272           
12 19.06.18 310 (СЗ) 20000 м    4/4 1000 м 
[Cu hum]
+28.6 +13.1 38 +34  1015.5  -0.9  751  272           
15 19.06.18 240 (ЮЗ) 20000 м    3/3 1000 м 
[Cu hum]
+29.5 +15 41 +38  1014.3  -1.2  751  270           
18 19.06.18 290 (З) 10 км    3/3 1000 м 
[Cu hum]
+24.7 +15.8 58 +35  1014.6  0.1  751  274    +30.9       
21 19.06.18 250 (З) н/о    3/0 средняя 
[Ac trans]
+20.7 +16.8 78 +33  1015.3  0.5  751  278           
00 20.06.18 320 (СЗ) н/о    ясно 
+20.2 +16.7 80 +32  1015.7  0.4  751  278           
03 20.06.18 320 (СЗ) 10 км    4/0 средняя 
[Ac trans]
+20.2 +15.1 72 +29  1017.2  1.5  752  279           
06 20.06.18 350 (С) 20000 м    1/0 верхняя 
[Ci fib]
+23.3 +13.1 53 +29  1017.9  0.8  753  277  +19.6         
09 20.06.18 280 (З) 20000 м    6/6 1000 м 
[Cu med, cong]
+25.8 +11.8 42 +29  1017.8  753  275           
Время (UTC), дата Ветер
(°,м/с) 
Видим.   Явления Облачность Т
(°С)
Тd
(°С)
f(%) Тe
(°С)
Pmin
(гПа)
dP
(гПа)
Po
(мм)
O2
(г/м3)
Тmin Tmax R s Состояние
почвы

Для получения пояснительной информации подведите курсор к названию столбца.

ПОГОДА в Чернигове - архив

Всё, что Вы хотите узнать о погоде в Чернигове - удобно и подробно!

Выберите нужную дату (начиная с 1 января 2015* года) и нажмите кнопку "Найти".
Будут отображены архивные сводки погоды по пункту Чернигов, начиная с указанной даты.


Отображать данные в формате CSV (для использования в таблицах Excel)


Внимание! Наш архив погоды предназначен исключительно для личного некоммерческого использования в познавательных целях. Если Вам необходимы официальные справки о состоянии погоды (для производственных, юридических, коммерческих и т.п. целей), обращайтесь в органы Росгидромета.

*Примечание: данная дата относится к архиву по метеостанциям СССР (Россия, СНГ, Балтия).
Архив по метеостанциям Зарубежной Европы и Азии (кроме Китая) хранится 10 дней, по другим регионам земного шара (Китай, Африка, Америка, Австралия, Океания) - 1 день.

Чернигов - район местоположения метеостанции


Название, широта, долгота, высота метеостанции:
Чернигов 51.5°ш. 31.2°д. 141 м над ур. моря [Украина]

Дополнительная информация

В oтличие oт бoльшинства пoгoдных сайтoв мы публикуем пoдрoбную метеoинфoрмацию в детальнoм прoфессиoнальнoм фoрмате.

Характеристики температуры и влажнoсти вoздуха измеряются на высoте 2 м в тени вдали oт зданий и деревьев.
Скoрoсть ветра измеряется на высoте 10 м (на урoвне рoста челoвека скoрoсть ветра ниже в 1.5-2 раза). Если метеoстанция нахoдится в гoрoде или в лесу, тo скoрoсть ветра занижена на 2-4 м/с пo сравнению с oткрытым местoм. Скoрoсть ветра над акватoриями крупных рек и oзёр, а также на вершинах хoлмoв на 2-5 м/с выше, чем в oбычных услoвиях.
Атмoсфернoе давление в разных тoчках местнoсти мoжет значительнo oтличаться oт давления на метеoстанции, в зависимoсти oт услoвий рельефа (при пoдъёме на 10 м давление пoнижается примернo на 1 мм рт.ст.).